Stations météo

Publicité
Troyes, France (7168): Température de l'air & dewpoint: 28.05.2020 03:00:00 - 03.06.2020 03:00:00 (CEST)Troyes, France (7168): Température de l'air 5cm: 28.05.2020 03:00:00 - 03.06.2020 03:00:00 (CEST)Troyes, France (7168): Température de l'air -20cm & Température de l'air -100cm: 28.05.2020 03:00:00 - 03.06.2020 03:00:00 (CEST)Troyes, France (7168): Vitesse du vent & gusts: 28.05.2020 03:00:00 - 03.06.2020 03:00:00 (CEST)Troyes, France (7168): Direction du vent: 28.05.2020 03:00:00 - 03.06.2020 03:00:00 (CEST)Troyes, France (7168): reduced air pressure: 28.05.2020 03:00:00 - 03.06.2020 03:00:00 (CEST)Troyes, France (7168): visibility: 28.05.2020 03:00:00 - 03.06.2020 03:00:00 (CEST)Troyes, France (7168): Ensoleillement: 28.05.2020 03:00:00 - 03.06.2020 03:00:00 (CEST)Troyes, France (7168): Quantités de précipitations: 28.05.2020 03:00:00 - 03.06.2020 03:00:00 (CEST)
Date & Time tt [°C] td [°C] tt 5cm [°C] tt -20cm [°C] tt -100cm [°C] ff [km/h] ff [knt] fx [km/h] fx [knt] dd ppp [hPa] vv [km] sd [min] rr [mm]
03.06.2020 03:00:00 - - - - - - - - - - - - - -
03.06.2020 02:00:00 13,1 10,3 10,2 19,8 15,2 4 2 11 6 SSW 1011,0 20 0 0,0
03.06.2020 01:00:00 14,7 10,9 10,7 20,0 15,2 6 4 14 8 NW 1011,8 20 0 0,0
03.06.2020 00:00:00 14,8 11,9 11,2 20,1 15,2 6 3 14 8 NW 1012,2 20 0 0,0
02.06.2020 23:00:00 15,7 12,6 12,5 20,1 15,2 3 2 10 5 NW 1012,3 20 0 0,0
02.06.2020 22:00:00 18,4 13,5 14,1 20,1 15,2 5 3 11 6 NW 1012,2 20 8 0,0
02.06.2020 21:00:00 25,0 13,9 20,6 20,0 15,2 5 3 14 8 N 1012,0 20 60 0,0
02.06.2020 20:00:00 27,2 10,8 25,7 19,8 15,1 9 5 15 8 NNW 1012,1 20 60 0,0
02.06.2020 19:00:00 27,8 10,9 27,5 19,6 15,2 12 6 17 9 NNW 1012,3 20 60 0,0
02.06.2020 18:00:00 28,1 10,8 29,1 19,3 15,2 10 5 18 10 WNW 1012,8 20 60 0,0
02.06.2020 17:00:00 27,7 9,5 30,3 18,9 15,1 8 5 21 12 NW 1013,5 20 60 0,0
02.06.2020 16:00:00 27,7 10,0 32,4 18,5 15,1 12 6 19 10 NW 1014,1 20 60 0,0
02.06.2020 15:00:00 27,8 10,9 32,6 18,2 15,1 8 4 16 9 NNW 1014,6 20 60 0,0
02.06.2020 14:00:00 26,6 11,9 32,1 17,9 15,1 8 4 18 10 E 1015,4 20 60 0,0
02.06.2020 13:00:00 26,0 12,1 31,2 17,8 15,1 10 5 19 11 NE 1015,9 20 - 0,0
02.06.2020 12:00:00 24,4 12,7 29,2 17,7 15,0 9 5 17 9 N 1016,3 20 60 0,0
02.06.2020 11:00:00 23,0 12,3 26,5 17,7 15,1 5 3 13 7 NNW 1016,5 17 60 0,0
02.06.2020 10:00:00 20,9 12,1 23,7 17,7 15,0 6 3 13 7 NE 1017,0 19 60 0,0
02.06.2020 09:00:00 18,4 11,0 18,7 17,7 15,0 7 4 10 6 NE 1017,4 20 60 0,0
02.06.2020 08:00:00 14,9 11,1 13,5 18,0 15,1 6 3 10 5 NNW 1017,4 20 60 0,0
02.06.2020 07:00:00 11,7 9,6 7,3 18,2 15,1 9 5 11 6 NNW 1017,7 20 46 0,0
02.06.2020 06:00:00 10,4 8,5 7,2 18,3 15,1 0 0 10 5 N 1017,4 20 0 0,0
02.06.2020 05:00:00 11,5 9,2 8,1 18,5 15,1 5 3 9 5 NW 1017,1 20 0 0,0
02.06.2020 04:00:00 11,9 9,6 8,6 18,6 15,1 9 5 13 7 WNW 1017,3 20 0 0,0
02.06.2020 03:00:00 14,4 10,0 10,0 18,7 15,1 6 3 11 6 WNW 1017,3 20 0 0,0
02.06.2020 02:00:00 13,6 9,6 11,0 18,9 15,1 9 5 11 6 NNW 1017,6 20 0 0,0
02.06.2020 01:00:00 14,9 9,9 12,5 19,0 15,1 10 5 16 9 WNW 1017,8 20 0 0,0
02.06.2020 00:00:00 15,9 9,8 11,4 19,1 15,1 15 8 17 9 WNW 1017,6 20 0 0,0
01.06.2020 23:00:00 17,0 10,1 12,4 19,1 15,1 9 5 14 8 NW 1017,3 20 0 0,0
01.06.2020 22:00:00 17,7 10,6 13,3 19,1 15,1 12 7 14 8 WNW 1017,1 20 9 0,0
01.06.2020 21:00:00 22,5 13,8 18,1 19,0 15,1 6 4 16 9 NNW 1016,4 20 60 0,0
01.06.2020 20:00:00 25,5 9,7 23,9 18,9 15,1 10 5 20 11 NNE 1016,1 20 60 0,0
01.06.2020 19:00:00 26,0 8,5 25,5 18,7 15,1 10 5 23 13 NE 1016,0 20 60 0,0
01.06.2020 18:00:00 25,8 8,7 26,3 18,3 15,1 11 6 23 13 NE 1016,2 20 60 0,0
01.06.2020 17:00:00 25,7 9,1 27,9 18,0 15,1 11 6 25 14 NE 1016,6 20 60 0,0
01.06.2020 16:00:00 25,0 9,3 28,7 17,7 15,1 12 7 25 14 ENE 1017,0 20 60 0,0
01.06.2020 15:00:00 24,4 9,2 28,8 17,4 15,1 13 7 24 13 NE 1017,5 20 60 0,0
01.06.2020 14:00:00 23,3 8,6 28,9 17,2 15,1 13 7 22 12 NE 1017,8 20 60 0,0
01.06.2020 13:00:00 22,3 7,3 27,2 17,1 15,1 10 5 24 13 NE 1018,0 20 60 0,0
01.06.2020 12:00:00 21,4 9,3 24,7 17,0 15,1 14 7 33 18 ENE 1018,2 20 60 0,0
01.06.2020 11:00:00 20,2 8,8 23,0 17,0 15,1 14 8 23 13 NE 1018,1 20 60 0,0
01.06.2020 10:00:00 18,1 8,6 21,0 17,0 15,1 12 7 18 10 NE 1018,4 20 60 0,0
01.06.2020 09:00:00 17,2 8,1 17,2 17,1 15,1 4 2 13 7 E 1018,5 20 60 0,0
01.06.2020 08:00:00 14,1 7,8 13,4 17,3 15,1 4 2 11 6 N 1018,4 20 60 0,0
01.06.2020 07:00:00 12,3 6,8 7,3 17,5 15,1 5 3 10 6 NNE 1018,2 20 46 0,0
01.06.2020 06:00:00 10,9 6,4 4,0 17,7 15,1 6 4 11 6 NE 1018,2 20 0 0,0
01.06.2020 05:00:00 10,1 5,5 4,7 17,8 15,1 2 1 12 7 NNW 1017,9 20 0 0,0
01.06.2020 04:00:00 12,0 6,1 7,4 17,9 15,1 6 3 9 5 ENE 1018,2 20 0 0,0
01.06.2020 03:00:00 12,5 6,1 6,4 18,1 15,1 3 2 10 5 NE 1018,4 20 0 0,0
01.06.2020 02:00:00 11,9 6,4 7,8 18,2 15,1 3 1 20 11 NE 1018,4 20 0 0,0
01.06.2020 01:00:00 14,8 6,4 13,0 18,3 15,1 10 6 24 13 ENE 1018,3 20 0 0,0
01.06.2020 00:00:00 16,4 6,2 14,8 18,4 15,0 13 7 25 13 NE 1018,1 20 0 0,0
31.05.2020 23:00:00 17,7 5,9 16,0 18,4 15,0 12 7 21 11 NE 1018,0 20 0 0,0
31.05.2020 22:00:00 18,3 6,5 16,4 18,5 15,0 9 5 20 11 NE 1017,7 20 8 0,0
31.05.2020 21:00:00 20,2 6,9 18,8 18,4 15,0 13 7 27 15 NE 1017,3 20 60 0,0
31.05.2020 20:00:00 21,7 6,8 20,8 18,3 15,1 19 10 37 20 NE 1017,0 20 60 0,0
31.05.2020 19:00:00 22,3 6,5 22,1 18,1 15,0 19 10 38 20 NE 1016,9 20 60 0,0
31.05.2020 18:00:00 22,2 6,0 22,5 17,9 15,0 22 12 41 22 ENE 1017,1 20 60 0,0
31.05.2020 17:00:00 22,2 6,0 24,5 17,6 15,0 21 11 39 21 NE 1017,4 20 60 0,0
31.05.2020 16:00:00 22,0 5,0 25,0 17,4 15,0 24 13 38 20 NE 1017,6 20 60 0,0
31.05.2020 15:00:00 21,6 5,9 25,3 17,2 15,0 20 11 46 25 NE 1018,1 20 60 0,0
31.05.2020 14:00:00 21,0 4,9 25,2 17,0 15,0 22 12 45 24 NE 1018,3 20 60 0,0
31.05.2020 13:00:00 20,6 6,2 24,0 17,0 15,0 22 12 41 22 ENE 1018,5 20 60 0,0
31.05.2020 12:00:00 19,7 6,1 22,6 16,9 15,0 22 12 42 23 NE 1018,8 20 60 0,0
31.05.2020 11:00:00 18,8 5,6 20,5 17,0 15,0 19 10 40 21 ENE 1019,1 20 60 0,0
31.05.2020 10:00:00 17,4 6,3 19,3 17,0 15,0 21 11 34 18 ENE 1019,2 20 60 0,0
31.05.2020 09:00:00 15,5 6,5 15,8 17,2 15,0 15 8 27 15 ENE 1019,5 20 60 0,0
31.05.2020 08:00:00 13,8 5,7 12,8 17,3 15,0 14 7 22 12 ENE 1019,3 20 60 0,0
31.05.2020 07:00:00 12,1 5,5 8,6 17,5 15,0 8 4 15 8 ENE 1019,2 20 45 0,0
31.05.2020 06:00:00 10,5 5,3 8,3 17,6 15,0 6 4 18 10 ENE 1019,1 20 0 0,0
31.05.2020 05:00:00 11,1 5,4 9,3 17,8 15,0 9 5 19 10 ENE 1018,9 20 0 0,0
31.05.2020 04:00:00 11,7 5,3 8,1 18,0 15,0 10 5 14 8 ENE 1018,8 20 0 0,0
31.05.2020 03:00:00 12,2 5,6 9,5 18,1 15,0 7 4 14 8 E 1018,9 20 0 0,0
31.05.2020 02:00:00 12,7 5,8 10,3 18,2 15,0 9 5 17 9 E 1018,9 20 0 0,0
31.05.2020 01:00:00 14,2 5,5 11,8 18,3 15,0 10 6 16 9 ENE 1018,9 20 0 0,0
31.05.2020 00:00:00 14,7 5,7 11,6 18,4 15,0 8 4 13 7 ENE 1018,8 20 0 0,0
30.05.2020 23:00:00 16,2 6,3 12,6 18,5 15,0 9 5 14 7 ENE 1018,7 20 0 0,0
30.05.2020 22:00:00 17,6 6,8 14,7 18,5 15,0 8 4 17 9 ENE 1018,2 20 7 0,0
30.05.2020 21:00:00 20,2 6,9 18,4 18,5 15,0 12 7 33 18 ENE 1017,6 20 60 0,0
30.05.2020 20:00:00 22,2 6,4 21,2 18,4 15,0 18 10 33 18 ENE 1017,4 20 60 0,0
30.05.2020 19:00:00 23,1 5,5 22,8 18,2 15,0 21 11 39 21 NE 1017,4 20 60 0,0
30.05.2020 18:00:00 23,3 6,1 23,7 18,0 15,0 22 12 43 23 NE 1017,7 20 60 0,0
30.05.2020 17:00:00 23,3 5,7 25,2 17,7 15,0 20 11 39 21 NE 1018,1 20 60 0,0
30.05.2020 16:00:00 23,3 5,2 25,9 17,4 15,0 25 13 41 22 NE 1018,4 18 60 0,0
30.05.2020 15:00:00 22,7 6,4 26,3 17,2 15,0 21 11 42 23 NE 1018,8 20 60 0,0
30.05.2020 14:00:00 22,3 6,5 26,5 17,0 15,0 17 9 38 21 ENE 1019,1 20 60 0,0
30.05.2020 13:00:00 21,6 6,3 25,4 16,9 15,0 22 12 41 22 ENE 1019,7 20 60 0,0
30.05.2020 12:00:00 21,3 7,5 24,1 16,9 14,9 23 12 39 21 ENE 1019,9 20 60 0,0
30.05.2020 11:00:00 20,4 7,4 22,3 16,9 14,9 18 10 37 20 NE 1020,2 20 60 0,0
30.05.2020 10:00:00 18,3 8,5 19,7 17,0 14,9 17 9 27 15 NE 1020,5 20 60 0,0
30.05.2020 09:00:00 16,0 7,7 16,6 17,2 15,0 14 8 23 12 ENE 1020,9 20 60 0,0
30.05.2020 08:00:00 14,0 6,6 12,8 17,3 14,9 7 4 14 8 ENE 1020,9 20 60 0,0
30.05.2020 07:00:00 11,2 7,1 4,7 17,4 14,9 3 2 8 5 SW 1020,9 20 45 0,0
30.05.2020 06:00:00 10,7 5,9 4,7 17,7 14,9 4 2 8 4 ENE 1020,8 20 0 0,0
30.05.2020 05:00:00 11,6 5,9 4,4 17,8 14,9 3 2 8 4 NE 1020,8 20 0 0,0
30.05.2020 04:00:00 10,3 5,9 5,1 18,0 14,9 2 1 5 3 E 1020,9 20 0 0,0
30.05.2020 03:00:00 11,3 6,0 6,4 18,1 14,9 0 0 16 9 N 1020,9 20 0 0,0
30.05.2020 02:00:00 14,3 6,4 11,5 18,2 14,9 10 6 14 8 ENE 1020,9 20 0 0,0
30.05.2020 01:00:00 15,0 6,5 12,2 18,3 14,9 7 4 14 8 NE 1021,0 20 0 0,0
30.05.2020 00:00:00 15,9 6,9 13,5 18,4 14,9 10 5 15 8 ENE 1021,2 20 0 0,0
29.05.2020 23:00:00 17,2 7,0 15,3 18,5 14,9 8 5 16 8 NE 1021,0 20 0 0,0
29.05.2020 22:00:00 18,1 7,5 16,3 18,5 14,9 8 4 14 8 NE 1020,7 20 6 0,0
29.05.2020 21:00:00 20,5 7,5 18,4 18,5 14,9 9 5 29 15 NE 1020,4 20 60 0,0
29.05.2020 20:00:00 21,9 6,1 20,9 18,4 14,9 19 10 36 19 NE 1020,4 20 60 0,0
29.05.2020 19:00:00 22,6 5,9 22,4 18,2 14,9 21 11 36 19 ENE 1020,5 20 60 0,0
29.05.2020 18:00:00 23,0 5,9 23,3 18,0 14,8 22 12 40 22 NE 1020,7 20 60 0,0
29.05.2020 17:00:00 23,1 6,4 24,7 17,8 14,8 23 12 44 24 NE 1021,2 20 60 0,0
29.05.2020 16:00:00 22,5 4,0 25,3 17,5 14,8 26 14 40 22 NE 1021,8 20 60 0,0
29.05.2020 15:00:00 21,9 5,7 25,2 17,3 14,8 23 12 - - NE 1022,5 20 60 0,0
29.05.2020 14:00:00 21,4 5,3 25,2 17,2 14,8 11 6 39 21 NNW 1023,2 20 60 0,0
29.05.2020 13:00:00 21,0 4,1 24,9 17,1 14,8 23 12 42 23 ENE 1023,7 20 60 0,0
29.05.2020 12:00:00 20,5 5,3 23,6 17,1 14,8 20 11 40 21 ENE 1024,2 20 60 0,0
29.05.2020 11:00:00 19,6 6,0 22,0 17,1 14,8 18 10 27 15 NE 1024,4 20 60 0,0
29.05.2020 10:00:00 17,5 6,7 18,9 17,2 14,8 16 9 26 14 ENE 1024,9 20 60 0,0
29.05.2020 09:00:00 15,3 5,8 15,3 17,4 14,8 16 8 28 15 E 1025,2 20 60 0,0
29.05.2020 08:00:00 13,5 4,4 12,0 17,6 14,8 16 9 26 14 E 1025,3 20 60 0,0
29.05.2020 07:00:00 12,1 4,1 9,3 17,8 14,8 14 8 24 13 ENE 1025,3 20 44 0,0
29.05.2020 06:00:00 10,8 4,3 9,4 17,9 14,8 11 6 28 15 ENE 1025,1 20 0 0,0
29.05.2020 05:00:00 12,1 4,1 10,4 18,1 14,8 16 8 24 13 ENE 1024,9 20 0 0,0
29.05.2020 04:00:00 12,6 4,8 5,7 18,3 14,8 11 6 21 11 NE 1025,4 20 0 0,0
29.05.2020 03:00:00 12,3 5,2 6,5 18,4 14,8 4 2 13 7 ENE 1025,6 20 0 0,0
29.05.2020 02:00:00 14,3 5,4 12,1 18,6 14,8 9 5 17 9 NE 1025,6 20 0 0,0
29.05.2020 01:00:00 15,0 5,8 13,1 18,7 14,8 11 6 29 16 ENE 1025,8 20 0 0,0
29.05.2020 00:00:00 17,6 5,2 16,1 18,8 14,8 16 9 29 16 NE 1025,6 20 0 0,0
28.05.2020 23:00:00 18,4 5,6 16,5 18,8 14,8 13 7 23 13 NE 1025,5 20 0 0,0
28.05.2020 22:00:00 19,7 5,3 18,0 18,9 14,8 11 6 21 11 NE 1025,2 20 5 0,0
28.05.2020 21:00:00 21,6 5,9 19,8 18,8 14,8 13 7 24 13 NNE 1025,2 20 60 0,0
28.05.2020 20:00:00 23,2 8,8 22,0 18,7 14,8 14 8 28 15 NNE 1025,1 20 60 0,0
28.05.2020 19:00:00 23,8 9,0 23,4 18,6 14,8 19 10 29 16 NE 1025,2 20 60 0,0
28.05.2020 18:00:00 24,2 10,5 23,4 18,3 14,8 18 10 29 16 NE 1025,5 20 55 0,0
28.05.2020 17:00:00 24,4 10,3 23,5 18,0 14,8 16 9 31 17 NE 1025,9 20 51 0,0
28.05.2020 16:00:00 24,4 11,7 24,5 17,8 14,7 16 8 30 16 NNE 1026,5 20 53 0,0
28.05.2020 15:00:00 23,6 11,9 23,7 17,5 14,8 17 9 33 18 NNE 1027,1 20 42 0,0
28.05.2020 14:00:00 23,2 13,1 26,8 17,3 14,8 16 9 35 19 NNE 1027,7 20 60 0,0
28.05.2020 13:00:00 21,7 12,3 25,9 17,2 14,7 16 9 29 16 N 1028,3 19 60 0,0
28.05.2020 12:00:00 20,7 12,1 24,7 17,1 14,8 16 9 28 15 N 1028,7 18 60 0,0
28.05.2020 11:00:00 19,2 11,5 22,7 17,1 14,7 10 5 21 11 N 1029,2 20 60 0,0
28.05.2020 10:00:00 17,9 11,0 20,1 17,2 14,8 12 7 19 11 N 1029,6 20 60 0,0
28.05.2020 09:00:00 16,3 10,2 16,7 17,3 14,8 13 7 21 11 N 1029,9 20 60 0,0
28.05.2020 08:00:00 14,3 9,7 13,4 17,4 14,7 11 6 16 9 N 1030,0 20 60 0,0
28.05.2020 07:00:00 12,0 9,4 10,1 17,6 14,7 10 5 17 9 NW 1030,1 20 43 0,0
28.05.2020 06:00:00 10,8 9,1 8,6 17,7 14,7 8 4 20 11 NW 1030,2 20 0 0,0
28.05.2020 05:00:00 11,7 9,4 10,5 17,8 14,7 15 8 21 12 WNW 1030,0 20 0 0,0
28.05.2020 04:00:00 12,2 10,3 10,1 18,0 14,7 15 8 19 10 WNW 1030,1 20 0 0,2
28.05.2020 03:00:00 12,2 10,4 10,7 18,1 14,7 15 8 17 9 WNW 1030,4 20 0 0,0

tt = Température de l'air
td = dewpoint
tt 5cm = Température de l'air 5cm
tt -20cm = Température de l'air -20cm
tt -100cm = Température de l'air -100cm
ff = Vitesse du vent
fx = gusts
dd = Direction du vent
ppp = reduced air pressure
vv = visibility
sd = Ensoleillement
rr = Quantités de précipitations

stations d'obs. à proximité